Regional Weather Roundup
Issued by NWS

Home | Current Version | Previous Version | Text Only | Print | Product List | Glossary Off
Versions: 1 2 3 4 5 6 7 8 9 10 11 12 13 14 15 16 17 18 19 20 21 22 23 24 25 26 27 28 29 30 31 32 33 34 35 36 37 38 39 40 41 42 43 44 45 46 47 48 49 50

278
ASUS43 KMPX 231610
RWRMN
WEATHER ROUNDUP FOR MINNESOTA
NATIONAL WEATHER SERVICE TWIN CITIES/CHANHASSEN MN
1100 AM CDT SUN APR 23 2017


NOTE: "FAIR" INDICATES FEW OR NO CLOUDS BELOW 12,000 FEET WITH NO
SIGNIFICANT WEATHER AND/OR OBSTRUCTIONS TO VISIBILITY. N/A MEANS
CURRENT SKY AND/OR WEATHER CONDITIONS ARE NOT AVAILABLE.

MNZ060>063-068>070-231700-
   Twin Cities Metro

CITY           SKY/WX    TMP DP  RH WIND       PRES   REMARKS
TWIN CITIES    MOSUNNY   57  41  55 VRB7      30.08F
ST PAUL        SUNNY     57  43  59 E7        30.09F
CRYSTAL        SUNNY     55  39  54 VRB7      30.08F
BLAINE         PTSUNNY   55  43  62 NE6       30.09F
LAKEVILLE      SUNNY     57  43  58 E3        30.07F
EDEN PRAIRIE   SUNNY     58  41  53 NE7       30.06F
SOUTH ST PAUL  SUNNY     56  42  58 N5        30.08F
LAKE ELMO      FAIR      55  43  62 E7        30.09F
$$
MNZ001>005-007-008-013>017-022>024-027-028-231700-
   Northwest Minnesota

CITY           SKY/WX    TMP DP  RH WIND       PRES   REMARKS
BEMIDJI        FLURRIES  32  23  70 NE12      30.17S WCI  23
HALLOCK        CLOUDY    36  14  41 E16       30.22F
ROSEAU         CLOUDY    34  16  47 E15       30.25S WCI  24
WARROAD        CLOUDY    32  18  55 E13       30.26S WCI  22
THIEF RVR FALL CLOUDY    32   6  33 E20       30.21  WCI  20
CROOKSTON      FLURRIES  34  27  75 E10G20    30.21S WCI  26
FOSSTON        LGT SNOW  30  25  80 E8        30.18R WCI  23
DETROIT LAKES  CLOUDY    36  32  87 E10G20    30.13S
MOORHEAD       CLOUDY    37  32  81 NE15      30.14S
PARK RAPIDS    CLOUDY    33  27  78 E13       30.14S WCI  24
MAHNOMEN       CLOUDY    31  28  88 E15       30.15S WCI  21
$$
MNZ006-009>011-018-025>026-231700-
   North Central Minnesota

CITY           SKY/WX    TMP DP  RH WIND       PRES   REMARKS
BAUDETTE       CLOUDY    32  11  41 E6        30.24S WCI  26
FLAG ISLAND    PTSUNNY   30   9  40 E6        30.26S WCI  24
INTL FALLS     MOSUNNY   32  13  45 NE7       30.24S WCI  26
WASKISH        CLOUDY    32  23  69 NE10      30.22S WCI  24
BIG FORK       CLOUDY    32  21  64 E8        30.20F WCI  25
LONGVILLE      LGT SNOW  30  30 100 E5        30.17S WCI  25
GRAND RAPIDS   CLOUDY    31  25  78 VRB3      30.20F
CRANE LAKE     CLOUDY    30  19  64 NE5       30.24F WCI  25
ORR            CLOUDY    32  19  59 MISG      30.19F
COOK           CLOUDY    32  21  64 NE6       30.21F WCI  26
WALKER         LGT SNOW  30  27  88 E9        30.17S WCI  22
$$
MNZ012-019>021-037-231700-
   Northeast Minnesota

CITY           SKY/WX    TMP DP  RH WIND       PRES   REMARKS
DULUTH         LGT SNOW  33  31  92 E10       30.18R VSB 1   WCI  25
ELY            CLOUDY    32  19  59 E6        30.20F WCI  26
HIBBING        CLOUDY    32  23  69 E9        30.19S WCI  24
EVELETH        CLOUDY    32  14  47 NE6       30.20F WCI  27
DULUTH HARBOR  MIX PCPN  36  34  93 NE18      30.22S
TWO HARBORS    CLOUDY    37  32  81 E10       30.19R
SILVER BAY     CLOUDY    34  28  80 E6        30.20S WCI  29
GRAND MARAIS     N/A     38  22  52 SE5       30.23S
G MARAIS ARPRT MOSUNNY   30  12  47 N5        30.18S WCI  25
$$
MNZ029>031-032-039>041-046>048-054>057-064-231700-
   West Central Minnesota

CITY           SKY/WX    TMP DP  RH WIND       PRES   REMARKS
FERGUS FALLS   MOSUNNY   43  36  75 E9G22     30.07F
WHEATON        CLOUDY    50  39  66 E15       30.06F
MORRIS         MOSUNNY   54  43  66 E16G22    30.04F
ALEXANDRIA     CLOUDY    45  37  73 E15       30.08F
ELBOW LAKE     FAIR      46  38  72 SE18G24   30.06F
WADENA         CLOUDY    37  32  81 E12G20    30.11F
GLENWOOD       CLOUDY    46  39  76 E20G25    30.07F
APPLETON       MOSUNNY   57  41  54 SE10      30.03F
BENSON         MOSUNNY   57  37  47 SE13      30.06F
ORTONVILLE     MOSUNNY   52  43  71 SE8       30.03F
MADISON        SUNNY     55  43  62 SE3       30.04F
WILLMAR        FAIR      55  45  67 E12       30.07F
$$
MNZ033>034-036-042>043-049>051-058-059-231700-
   Central Minnesota

CITY           SKY/WX    TMP DP  RH WIND       PRES   REMARKS
ST CLOUD       CLOUDY    46  39  76 E13G22    30.10F
SAUK CENTRE    CLOUDY    45  37  76 E14       30.09S
PAYNESVILLE    CLOUDY    51  39  64 E12G18    30.08F
AITKIN         MIX PCPN  36  28  75 NE10G17   30.14F
PINE RIVER     CLOUDY    34  30  86 NE9       30.18F WCI  26
BRAINERD       CLOUDY    36  31  82 E8        30.15F
STAPLES        CLOUDY    37  32  81 E9        30.12S
LONG PRAIRIE   CLOUDY    43  36  75 NE12G20   30.09F
LITTLE FALLS   CLOUDY    43  34  70 NE10      30.11F
LITCHFIELD     MOSUNNY   55  45  67 E12       30.07F
BUFFALO        SUNNY     53  40  60 E10G16    30.09F
MAPLE LAKE     MOSUNNY   54  43  65 NE9       30.09F
HUTCHINSON     CLOUDY    56  45  65 NE8       30.07F
$$
MNZ037-044-045-052-053-231700-
   East Central Minnesota

CITY           SKY/WX    TMP DP  RH WIND       PRES   REMARKS
PRINCETON      CLOUDY    50  37  62 NE10G17   30.11F
MORA           CLOUDY    43  34  70 NE9       30.15F
CAMBRIDGE      CLOUDY    48  36  61 NE8       30.10F
RUSH CITY      CLOUDY    44  36  73 NE9       30.14S
MOOSE LAKE     CLOUDY    36  32  87 NE6       30.16S
HINCKLEY       CLOUDY    41  36  81 NE10      30.15F
CLOQUET        LGT SNOW  34  30  86 E6        30.17F WCI  29
MCGREGOR       CLOUDY    34  32  93 NE9       30.17F WCI  26
$$
MNZ071>073-080-081-089-090-097-098-231700-
   Southwest Minnesota

CITY           SKY/WX    TMP DP  RH WIND       PRES   REMARKS
MONTEVIDEO     MOSUNNY   59  41  51 S5        30.04F
GRANITE FALLS  MOSUNNY   57  42  57 E8        30.06F
CANBY          MOSUNNY   53  41  65 CALM      30.04F
MARSHALL       SUNNY     55  41  59 SE8       30.04F
REDWOOD FALLS  MOSUNNY   58  38  47 S6        30.05F
OLIVIA         MOSUNNY   59  43  55 E6        30.04F
PIPESTONE      SUNNY     63  30  29 W15       30.03S
WINDOM         SUNNY     66  30  26 SW17      30.04F
WORTHINGTON    MOSUNNY   63  32  31 SW17      30.05F
JACKSON        SUNNY     63  30  29 SW13      30.07F
TRACY          SUNNY     60  45  58 SE5       30.03F
SLAYTON        MOSUNNY   62  33  33 SW22      30.04F
$$
MNZ065>067-074>077-082>085-091>093-231700-
   South Central Minnesota

CITY           SKY/WX    TMP DP  RH WIND       PRES   REMARKS
MANKATO        SUNNY     61  36  39 W10       30.07F
NEW ULM        SUNNY     61  36  39 W5        30.06F
ST JAMES       SUNNY     63  37  39 CALM      30.07F
FAIRMONT       SUNNY     65  32  29 SW14      30.07F
GLENCOE        MOSUNNY   58  47  67 E7        30.07F
FARIBAULT      SUNNY     63  37  39 W7        30.08F
OWATONNA       SUNNY     63  36  36 W7        30.08F
WASECA         SUNNY     63  34  34 W10       30.09F
ALBERT LEA     MOSUNNY   63  28  27 W12G17    30.09S
$$
MNZ078>079-086>088-094>096-231700-
   Southeast Minnesota

CITY           SKY/WX    TMP DP  RH WIND       PRES   REMARKS
ROCHESTER      SUNNY     64  38  38 NW14      30.10S
RED WING       SUNNY     63  36  36 W8        30.07S
STANTON        SUNNY     62  40  44 W8        30.07S
DODGE CENTER   SUNNY     63  36  36 W12       30.09S
WINONA         SUNNY     64  37  36 W10       30.08F
AUSTIN         SUNNY     63  32  31 W13       30.09F
PRESTON        SUNNY     64  33  32 W14G21    30.10S
$$
ABBREVIATIONS USED IN REMARKS
   TC - TEMPERATURES IN CELSIUS
  WCI - WIND CHILL INDEX
   HX - HEAT INDEX
  VSB - VISIBILITY
$$




USA.gov is the U.S. government's official web portal to all federal, state and local government web resources and services.